Total_Precipitation_Accumulation
0.00 0.00 0.00 0.00 0.00 0.00 0.00 0.00 0.00 0.00 0.00 0.00 0.00 0.00 0.00 0.00 0.00 0.00 0.00 0.00 0.01 0.02 0.03 0.05 0.07 0.08 0.10 0.10 0.12 0.14 0.17 0.22 0.21 0.08 0.06 0.09 0.10 0.09 0.10 0.12 0.11 0.11 0.10
0.00 0.00 0.00 0.00 0.00 0.00 0.00 0.00 0.00 0.00 0.00 0.00 0.00 0.00 0.00 0.00 0.00 0.00 0.00 0.00 0.00 0.00 0.01 0.03 0.05 0.07 0.08 0.09 0.11 0.12 0.14 0.17 0.24 0.19 0.11 0.12 0.12 0.14 0.17 0.18 0.16 0.14 0.12
0.00 0.00 0.00 0.00 0.00 0.00 0.00 0.00 0.00 0.00 0.00 0.00 0.00 0.00 0.00 0.00 0.00 0.00 0.00 0.00 0.00 0.00 0.00 0.01 0.03 0.05 0.06 0.06 0.07 0.10 0.13 0.17 0.24 0.26 0.19 0.16 0.15 0.15 0.18 0.18 0.18 0.16 0.15
0.00 0.00 0.00 0.00 0.00 0.00 0.00 0.00 0.00 0.00 0.00 0.00 0.00 0.00 0.00 0.00 0.00 0.00 0.00 0.00 0.00 0.00 0.00 0.01 0.01 0.02 0.02 0.03 0.06 0.09 0.15 0.20 0.23 0.26 0.24 0.20 0.20 0.19 0.20 0.17 0.16 0.15 0.16
0.00 0.00 0.00 0.00 0.00 0.00 0.00 0.00 0.00 0.00 0.00 0.00 0.00 0.00 0.00 0.00 0.00 0.00 0.00 0.00 0.00 0.00 0.00 0.00 0.00 0.01 0.01 0.03 0.07 0.12 0.19 0.25 0.29 0.33 0.33 0.32 0.29 0.25 0.21 0.21 0.26 0.26 0.25
0.00 0.00 0.00 0.00 0.00 0.00 0.00 0.00 0.00 0.00 0.00 0.00 0.00 0.00 0.00 0.00 0.00 0.00 0.00 0.00 0.00 0.00 0.00 0.00 0.00 0.00 0.01 0.04 0.08 0.16 0.27 0.36 0.42 0.44 0.45 0.43 0.35 0.31 0.31 0.35 0.40 0.46 0.42
0.00 0.00 0.00 0.00 0.00 0.00 0.00 0.00 0.00 0.00 0.00 0.00 0.00 0.00 0.00 0.00 0.00 0.00 0.00 0.00 0.00 0.00 0.00 0.00 0.01 0.01 0.02 0.03 0.06 0.14 0.22 0.29 0.35 0.40 0.42 0.36 0.33 0.32 0.38 0.47 0.51 0.55 0.48
0.00 0.00 0.00 0.00 0.00 0.00 0.00 0.00 0.00 0.00 0.00 0.00 0.00 0.00 0.00 0.00 0.00 0.00 0.00 0.00 0.00 0.00 0.00 0.01 0.01 0.01 0.02 0.05 0.11 0.15 0.14 0.13 0.19 0.25 0.29 0.31 0.34 0.39 0.48 0.60 0.70 0.76 0.67
0.00 0.00 0.00 0.00 0.00 0.00 0.00 0.00 0.00 0.00 0.00 0.00 0.00 0.00 0.00 0.00 0.00 0.00 0.01 0.00 0.00 0.00 0.00 0.01 0.02 0.02 0.04 0.11 0.18 0.22 0.17 0.12 0.15 0.21 0.29 0.33 0.34 0.37 0.44 0.60 0.77 0.85 0.75
0.00 0.00 0.00 0.00 0.00 0.00 0.00 0.00 0.00 0.00 0.00 0.00 0.00 0.00 0.00 0.00 0.00 0.00 0.01 0.02 0.02 0.02 0.02 0.02 0.03 0.04 0.08 0.15 0.20 0.24 0.22 0.16 0.18 0.23 0.26 0.27 0.26 0.30 0.38 0.50 0.78 1.02 0.92
0.00 0.00 0.00 0.00 0.00 0.00 0.00 0.00 0.00 0.00 0.00 0.00 0.00 0.00 0.00 0.00 0.00 0.00 0.02 0.03 0.05 0.07 0.05 0.03 0.02 0.07 0.12 0.15 0.16 0.17 0.23 0.27 0.25 0.26 0.28 0.30 0.31 0.33 0.37 0.46 0.67 1.02 1.13
0.00 0.00 0.00 0.00 0.00 0.00 0.00 0.00 0.00 0.00 0.00 0.00 0.00 0.00 0.00 0.00 0.00 0.00 0.02 0.04 0.08 0.08 0.06 0.04 0.05 0.09 0.10 0.09 0.09 0.15 0.25 0.26 0.23 0.31 0.37 0.38 0.38 0.40 0.45 0.52 0.60 0.71 0.84
0.00 0.00 0.00 0.00 0.00 0.00 0.00 0.00 0.00 0.00 0.00 0.00 0.00 0.00 0.00 0.00 0.00 0.00 0.02 0.05 0.07 0.07 0.06 0.08 0.08 0.07 0.06 0.06 0.09 0.14 0.15 0.14 0.25 0.43 0.51 0.52 0.54 0.59 0.63 0.65 0.63 0.63 0.65
0.00 0.00 0.00 0.00 0.00 0.00 0.00 0.00 0.00 0.00 0.00 0.00 0.00 0.00 0.00 0.00 0.00 0.01 0.03 0.05 0.05 0.06 0.07 0.07 0.05 0.04 0.04 0.06 0.10 0.10 0.09 0.15 0.34 0.50 0.56 0.57 0.60 0.65 0.71 0.77 0.82 0.77 0.75
0.00 0.00 0.00 0.00 0.00 0.00 0.00 0.00 0.00 0.00 0.00 0.00 0.00 0.01 0.01 0.02 0.02 0.06 0.08 0.07 0.08 0.09 0.09 0.04 0.02 0.03 0.04 0.06 0.09 0.10 0.11 0.19 0.29 0.38 0.49 0.55 0.57 0.63 0.72 0.82 0.87 0.82 0.73
0.00 0.00 0.00 0.00 0.00 0.00 0.00 0.00 0.00 0.00 0.00 0.00 0.00 0.01 0.01 0.02 0.05 0.07 0.07 0.09 0.10 0.09 0.08 0.04 0.05 0.07 0.09 0.13 0.14 0.15 0.16 0.22 0.34 0.46 0.54 0.62 0.70 0.78 0.86 0.88 0.85 0.75 0.62
0.00 0.00 0.00 0.00 0.00 0.00 0.00 0.00 0.00 0.00 0.00 0.00 0.00 0.01 0.02 0.03 0.04 0.05 0.07 0.08 0.05 0.07 0.08 0.09 0.12 0.16 0.18 0.19 0.21 0.24 0.28 0.34 0.49 0.62 0.70 0.76 0.83 0.89 0.91 0.84 0.71 0.56 0.41
0.00 0.00 0.00 0.00 0.00 0.00 0.00 0.00 0.00 0.00 0.00 0.00 0.00 0.00 0.01 0.02 0.03 0.05 0.07 0.04 0.02 0.05 0.12 0.17 0.22 0.25 0.24 0.25 0.28 0.35 0.43 0.50 0.60 0.71 0.79 0.85 0.93 0.96 0.86 0.69 0.51 0.34 0.20
0.00 0.00 0.00 0.00 0.00 0.00 0.00 0.00 0.00 0.00 0.01 0.00 0.00 0.00 0.00 0.01 0.02 0.03 0.03 0.02 0.03 0.06 0.12 0.19 0.24 0.25 0.26 0.28 0.33 0.42 0.55 0.67 0.74 0.82 0.88 0.95 0.96 0.84 0.65 0.44 0.25 0.11 0.06
0.00 0.00 0.00 0.00 0.00 0.00 0.00 0.00 0.00 0.01 0.02 0.02 0.01 0.01 0.01 0.02 0.04 0.02 0.01 0.02 0.03 0.05 0.08 0.14 0.18 0.21 0.25 0.31 0.40 0.51 0.67 0.76 0.83 0.88 0.95 0.95 0.81 0.59 0.38 0.18 0.08 0.04 0.03
0.00 0.00 0.00 0.00 0.00 0.00 0.00 0.01 0.01 0.03 0.03 0.02 0.01 0.01 0.04 0.06 0.04 0.02 0.02 0.02 0.03 0.04 0.06 0.11 0.15 0.20 0.27 0.38 0.49 0.58 0.69 0.79 0.88 0.93 0.90 0.76 0.55 0.32 0.13 0.05 0.03 0.03 0.03
0.00 0.00 0.00 0.00 0.00 0.01 0.01 0.02 0.02 0.03 0.03 0.03 0.02 0.01 0.03 0.02 0.02 0.02 0.02 0.02 0.02 0.02 0.04 0.07 0.11 0.17 0.30 0.50 0.68 0.75 0.75 0.78 0.81 0.81 0.69 0.49 0.28 0.12 0.04 0.03 0.03 0.03 0.03
0.00 0.00 0.00 0.00 0.01 0.01 0.02 0.01 0.02 0.03 0.03 0.03 0.02 0.02 0.02 0.02 0.02 0.02 0.02 0.02 0.02 0.02 0.02 0.04 0.08 0.14 0.26 0.49 0.71 0.87 0.92 0.87 0.80 0.67 0.49 0.29 0.12 0.05 0.04 0.04 0.03 0.03 0.03
0.00 0.00 0.01 0.01 0.02 0.02 0.02 0.02 0.02 0.02 0.03 0.03 0.03 0.03 0.02 0.02 0.02 0.02 0.01 0.01 0.02 0.02 0.01 0.03 0.07 0.14 0.28 0.50 0.70 0.82 0.89 0.88 0.73 0.50 0.32 0.16 0.07 0.05 0.04 0.04 0.04 0.03 0.03
0.01 0.01 0.01 0.02 0.02 0.02 0.02 0.02 0.02 0.02 0.03 0.03 0.03 0.03 0.02 0.02 0.02 0.01 0.01 0.01 0.02 0.02 0.01 0.02 0.07 0.16 0.32 0.51 0.70 0.82 0.84 0.73 0.50 0.30 0.16 0.08 0.06 0.05 0.05 0.04 0.04 0.03 0.02
0.01 0.01 0.01 0.01 0.01 0.01 0.01 0.02 0.02 0.03 0.03 0.03 0.04 0.03 0.03 0.02 0.02 0.02 0.02 0.02 0.02 0.02 0.01 0.02 0.07 0.18 0.34 0.52 0.68 0.80 0.76 0.57 0.33 0.16 0.07 0.05 0.04 0.04 0.04 0.03 0.03 0.02 0.02